This demonstration page uses our WeatherBlox Daily Observations layout. Learn more.

Left ArrowRight Arrow

Hourly Observations for March 9, 2020

Temp ( °F °C ) Dew Point ( °F °C ) Humidity (%) Winds ( mph kmh ) Pressure ( in mb ) Visibility ( mi km ) Precip ( " mm )
12:44 am 00:44 Cloudy with Light Rain 56 13.3 51 10.6 84 84 SSW 9 15 29.95 1014 6 9.65604 0.02 0.508
12:54 am 00:54 Cloudy with Rain 55 12.8 51 10.6 87 87 SW 6 9 29.94 1014 6 9.65604 0.03 0.762
1:54 am 01:54 Cloudy with Light Rain 54 12.2 51 10.6 90 90 SSE 3 6 29.93 1014 9 14.48406 0.05 1.27
2:25 am 02:25 Cloudy with Light Rain 54 12.2 52 11.1 93 93 ESE 3 6 29.94 1014 5 8.0467 0.03 0.762
2:54 am 02:54 Cloudy with Light Rain 45 7.2 42 5.6 90 90 N 17 28 29.93 1014 6 9.65604 0.04 1.016
3:04 am 03:04 Cloudy with Light Rain 42 5.6 39 3.9 89 89 N 20 31 29.97 1015 5 8.0467 0.001 0.001
3:54 am 03:54 Cloudy with Light Rain 40 4.4 37 2.8 89 89 N 14 22 29.92 1013 5 8.0467 0.01 0.254
4:14 am 04:14 Cloudy with Light Rain 40 4.4 37 2.8 89 89 N 14 22 29.97 1015 3 4.82802 0.001 0.001
4:22 am 04:22 Cloudy with Light Rain 40 4.4 37 2.8 89 89 N 14 22 29.98 1015 2 3.21868 0.001 0.001
4:54 am 04:54 Cloudy with Light Rain 39 3.9 36 2.2 89 89 N 16 26 29.94 1014 2.5 4.02335 0.02 0.508
5:34 am 05:34 Cloudy with Light Rain 37 2.8 35 1.7 93 93 NNE 16 26 29.99 1015 3 4.82802 0.001 0.001
5:54 am 05:54 Cloudy with Mist and Fog 37 2.8 34 1.1 89 89 N 16 26 29.94 1014 5 8.0467 0.001 0.001
6:54 am 06:54 Cloudy with Light Rain 36 2.2 33 0.6 89 89 NNE 17 28 29.95 1014 4 6.43736 0.001 0.001
7:54 am 07:54 Cloudy with Mist and Fog 35 1.7 32 0 89 89 N 18 30 29.97 1015 6 9.65604 0.001 0.001
8:41 am 08:41 Cloudy with Light Rain 35 1.7 32 0 89 89 N 15 24 30.03 1017 2 3.21868 0.001 0.001
8:54 am 08:54 Cloudy with Light Rain 35 1.7 32 0 89 89 N 17 28 29.99 1016 2 3.21868 0.001 0.001
9:54 am 09:54 Cloudy with Light Rain 35 1.7 32 0 89 89 N 16 26 30.01 1016 3 4.82802 0.001 0.001
10:26 am 10:26 Cloudy with Heavy Rain 34 1.1 31 -0.6 89 89 NNE 22 35 30.02 1017 3 4.82802 0.05 1.27
10:54 am 10:54 Cloudy with Light Rain 35 1.7 32 0 89 89 NNE 22 35 29.98 1015 6 9.65604 0.12 3.048
11:34 am 11:34 Cloudy with Light Rain 35 1.7 32 0 89 89 N 17 28 30.05 1018 10 16.0934 0.02 0.508
11:54 am 11:54 Cloudy 35 1.7 32 0 89 89 N 20 31 30.03 1017 10 16.0934 0.02 0.508
12:54 pm 12:54 Cloudy with Light Rain 35 1.7 32 0 89 89 N 20 31 30.03 1017 10 16.0934 0.001 0.001
1:54 pm 13:54 Cloudy with Rain 34 1.1 31 -0.6 89 89 N 18 30 30.01 1016 5 8.0467 0.001 0.001
2:54 pm 14:54 Cloudy with Light Rain 35 1.7 31 -0.6 85 85 NNW 18 30 30.05 1018 8 12.87472 0.02 0.508
3:54 pm 15:54 Cloudy with Light Rain 35 1.7 31 -0.6 85 85 NNW 17 28 30.09 1019 10 16.0934 0.04 1.016
4:02 pm 16:02 Cloudy with Light Rain 35 1.7 31 -0.6 85 85 NNW 18 30 30.12 1020 9 14.48406 0.001 0.001
4:47 pm 16:47 Cloudy with Light Rain 35 1.7 30 -1.1 82 82 NNW 18 30 30.12 1020 10 16.0934 0.001 0.001
4:54 pm 16:54 Cloudy with Light Rain 35 1.7 30 -1.1 82 82 N 17 28 30.1 1019 10 16.0934 0.001 0.001
5:02 pm 17:02 Cloudy 34 1.1 30 -1.1 85 85 N 17 28 30.12 1020 10 16.0934 0.001 0.001
5:26 pm 17:26 Cloudy 35 1.7 31 -0.6 85 85 NNW 17 28 30.12 1020 10 16.0934 0.001 0.001
5:40 pm 17:40 Cloudy with Light Rain 35 1.7 30 -1.1 82 82 NNW 20 31 30.13 1020 10 16.0934 0.001 0.001
5:54 pm 17:54 Cloudy 35 1.7 31 -0.6 85 85 NNW 21 33 30.12 1020 10 16.0934 0.001 0.001
6:05 pm 18:05 Cloudy 35 1.7 30 -1.1 82 82 NNW 16 26 30.15 1021 10 16.0934 0 0
6:54 pm 18:54 Cloudy 34 1.1 30 -1.1 85 85 N 18 30 30.15 1021 10 16.0934 0 0
7:54 pm 19:54 Cloudy 34 1.1 29 -1.7 82 82 NNW 10 17 30.18 1022 10 16.0934 0 0
8:54 pm 20:54 Cloudy 34 1.1 29 -1.7 82 82 NNW 14 22 30.21 1023 10 16.0934 0 0
9:54 pm 21:54 Cloudy 33 0.6 29 -1.7 85 85 N 10 17 30.25 1024 10 16.0934 0 0
10:54 pm 22:54 Cloudy 33 0.6 28 -2.2 82 82 NNW 9 15 30.27 1025 10 16.0934 0 0
11:54 pm 23:54 Cloudy 33 0.6 28 -2.2 82 82 N 9 15 30.28 1026 10 16.0934 0 0

Powered by AerisWeather